Year,Month,Day,Hour,Minute,Value (Times are PST for windspeed in km/hr)
2024,03,11,00,00,9.00
2024,03,11,00,01,9.90
2024,03,11,00,02,11.00
2024,03,11,00,03,8.30
2024,03,11,00,04,7.10
2024,03,11,00,05,8.50
2024,03,11,00,06,10.80
2024,03,11,00,07,9.60
2024,03,11,00,08,10.90
2024,03,11,00,09,8.90
2024,03,11,00,10,9.20
2024,03,11,00,11,7.90
2024,03,11,00,12,7.10
2024,03,11,00,13,6.10
2024,03,11,00,14,5.40
2024,03,11,00,15,5.30
2024,03,11,00,16,4.70
2024,03,11,00,17,8.10
2024,03,11,00,18,6.80
2024,03,11,00,19,9.40
2024,03,11,00,20,7.00
2024,03,11,00,21,8.00
2024,03,11,00,22,7.80
2024,03,11,00,23,8.40
2024,03,11,00,24,7.10
2024,03,11,00,25,8.10
2024,03,11,00,26,9.40
2024,03,11,00,27,8.70
2024,03,11,00,28,11.70
2024,03,11,00,29,9.10
2024,03,11,00,30,12.70
2024,03,11,00,31,11.00
2024,03,11,00,32,11.40
2024,03,11,00,33,8.30
2024,03,11,00,34,8.50
2024,03,11,00,35,9.10
2024,03,11,00,36,10.10
2024,03,11,00,37,11.70
2024,03,11,00,38,12.20
2024,03,11,00,39,8.50
2024,03,11,00,40,12.40
2024,03,11,00,41,11.70
2024,03,11,00,42,8.90
2024,03,11,00,43,12.60
2024,03,11,00,44,12.50
2024,03,11,00,45,12.30
2024,03,11,00,46,9.10
2024,03,11,00,47,11.10
2024,03,11,00,48,10.20
2024,03,11,00,49,10.20
2024,03,11,00,50,15.40
2024,03,11,00,51,11.20
2024,03,11,00,52,10.40
2024,03,11,00,53,11.30
2024,03,11,00,54,10.90
2024,03,11,00,55,8.80
2024,03,11,00,56,8.10
2024,03,11,00,57,10.00
2024,03,11,00,58,9.00
2024,03,11,00,59,11.50
2024,03,11,01,00,9.20
2024,03,11,01,01,10.70
2024,03,11,01,02,11.10
2024,03,11,01,03,8.90
2024,03,11,01,04,7.20
2024,03,11,01,05,6.80
2024,03,11,01,06,7.50
2024,03,11,01,07,11.30
2024,03,11,01,08,10.60
2024,03,11,01,09,8.70
2024,03,11,01,10,8.50
2024,03,11,01,11,10.30
2024,03,11,01,12,14.70
2024,03,11,01,13,11.90
2024,03,11,01,14,10.90
2024,03,11,01,15,12.80
2024,03,11,01,16,12.60
2024,03,11,01,17,10.50
2024,03,11,01,18,10.80
2024,03,11,01,19,13.00
2024,03,11,01,20,13.70
2024,03,11,01,21,8.90
2024,03,11,01,22,10.30
2024,03,11,01,23,8.10
2024,03,11,01,24,7.00
2024,03,11,01,25,8.30
2024,03,11,01,26,7.90
2024,03,11,01,27,9.70
2024,03,11,01,28,7.10
2024,03,11,01,29,8.10
2024,03,11,01,30,8.90
2024,03,11,01,31,8.90
2024,03,11,01,32,8.40
2024,03,11,01,33,5.50
2024,03,11,01,34,6.00
2024,03,11,01,35,5.40
2024,03,11,01,36,6.00
2024,03,11,01,37,6.50
2024,03,11,01,38,4.80
2024,03,11,01,39,6.70
2024,03,11,01,40,7.70
2024,03,11,01,41,7.10
2024,03,11,01,42,4.90
2024,03,11,01,43,2.50
2024,03,11,01,44,4.40
2024,03,11,01,45,3.50
2024,03,11,01,46,4.40
2024,03,11,01,47,2.40
2024,03,11,01,48,1.00
2024,03,11,01,49,0.00
2024,03,11,01,50,1.30
2024,03,11,01,51,4.40
2024,03,11,01,52,6.80
2024,03,11,01,53,3.10
2024,03,11,01,54,3.20
2024,03,11,01,55,3.60
2024,03,11,01,56,4.80
2024,03,11,01,57,4.10
2024,03,11,01,58,4.70
2024,03,11,01,59,4.30
2024,03,11,02,00,5.50
2024,03,11,02,01,0.60
2024,03,11,02,02,0.00
2024,03,11,02,03,0.80
2024,03,11,02,04,3.90
2024,03,11,02,05,0.60
2024,03,11,02,06,3.30
2024,03,11,02,07,4.00
2024,03,11,02,08,3.50
2024,03,11,02,09,3.70
2024,03,11,02,10,2.40
2024,03,11,02,11,3.40
2024,03,11,02,12,1.40
2024,03,11,02,13,0.50
2024,03,11,02,14,0.00
2024,03,11,02,15,0.00
2024,03,11,02,16,0.00
2024,03,11,02,17,0.00
2024,03,11,02,18,0.00
2024,03,11,02,19,0.00
2024,03,11,02,20,0.60
2024,03,11,02,21,5.10
2024,03,11,02,22,1.40
2024,03,11,02,23,2.10
2024,03,11,02,24,8.50
2024,03,11,02,25,8.40
2024,03,11,02,26,6.00
2024,03,11,02,27,1.10
2024,03,11,02,28,3.10
2024,03,11,02,29,3.20
2024,03,11,02,30,1.50
2024,03,11,02,31,0.80
2024,03,11,02,32,0.10
2024,03,11,02,33,0.10
2024,03,11,02,34,2.20
2024,03,11,02,35,0.00
2024,03,11,02,36,0.00
2024,03,11,02,37,0.00
2024,03,11,02,38,0.00
2024,03,11,02,39,0.00
2024,03,11,02,40,0.00
2024,03,11,02,41,0.00
2024,03,11,02,42,0.00
2024,03,11,02,43,0.00
2024,03,11,02,44,1.00
2024,03,11,02,45,0.00
2024,03,11,02,46,0.00
2024,03,11,02,47,1.00
2024,03,11,02,48,0.00
2024,03,11,02,49,0.00
2024,03,11,02,50,0.00
2024,03,11,02,51,0.00
2024,03,11,02,52,0.00
2024,03,11,02,53,0.00
2024,03,11,02,54,0.00
2024,03,11,02,55,0.00
2024,03,11,02,56,0.00
2024,03,11,02,57,0.00
2024,03,11,02,58,0.00
2024,03,11,02,59,0.00
2024,03,11,03,00,0.00
2024,03,11,03,01,0.00
2024,03,11,03,02,0.00
2024,03,11,03,03,0.00
2024,03,11,03,04,0.90
2024,03,11,03,05,3.60
2024,03,11,03,06,3.20
2024,03,11,03,07,3.40
2024,03,11,03,08,4.60
2024,03,11,03,09,5.40
2024,03,11,03,10,2.60
2024,03,11,03,11,3.30
2024,03,11,03,12,3.90
2024,03,11,03,13,5.30
2024,03,11,03,14,3.60
2024,03,11,03,15,0.50
2024,03,11,03,16,2.70
2024,03,11,03,17,3.90
2024,03,11,03,18,6.20
2024,03,11,03,19,6.10
2024,03,11,03,20,6.40
2024,03,11,03,21,8.20
2024,03,11,03,22,13.20
2024,03,11,03,23,13.70
2024,03,11,03,24,10.60
2024,03,11,03,25,9.60
2024,03,11,03,26,12.60
2024,03,11,03,27,17.20
2024,03,11,03,28,16.20
2024,03,11,03,29,11.00
2024,03,11,03,30,18.10
2024,03,11,03,31,20.90
2024,03,11,03,32,14.50
2024,03,11,03,33,14.40
2024,03,11,03,34,10.40
2024,03,11,03,35,13.10
2024,03,11,03,36,11.40
2024,03,11,03,37,11.20
2024,03,11,03,38,10.60
2024,03,11,03,39,10.80
2024,03,11,03,40,8.70
2024,03,11,03,41,9.20
2024,03,11,03,42,8.40
2024,03,11,03,43,8.90
2024,03,11,03,44,9.30
2024,03,11,03,45,10.20
2024,03,11,03,46,10.30
2024,03,11,03,47,10.20
2024,03,11,03,48,6.90
2024,03,11,03,49,10.50
2024,03,11,03,50,13.80
2024,03,11,03,51,12.30
2024,03,11,03,52,11.40
2024,03,11,03,53,14.40
2024,03,11,03,54,12.00
2024,03,11,03,55,12.20
2024,03,11,03,56,13.20
2024,03,11,03,57,11.90
2024,03,11,03,58,13.20
2024,03,11,03,59,9.80
2024,03,11,04,00,7.90
2024,03,11,04,01,9.50
2024,03,11,04,02,12.50
2024,03,11,04,03,12.80
2024,03,11,04,04,10.40
2024,03,11,04,05,10.30
2024,03,11,04,06,7.90
2024,03,11,04,07,9.00
2024,03,11,04,08,10.20
2024,03,11,04,09,14.90
2024,03,11,04,10,10.50
2024,03,11,04,11,8.60
2024,03,11,04,12,8.50
2024,03,11,04,13,10.80
2024,03,11,04,14,9.20
2024,03,11,04,15,9.40
2024,03,11,04,16,11.10
2024,03,11,04,17,14.20
2024,03,11,04,18,11.20
2024,03,11,04,19,10.80
2024,03,11,04,20,11.20
2024,03,11,04,21,8.90
2024,03,11,04,22,12.50
2024,03,11,04,23,12.40
2024,03,11,04,24,8.10
2024,03,11,04,25,9.70
2024,03,11,04,26,12.90
2024,03,11,04,27,12.20
2024,03,11,04,28,7.50
2024,03,11,04,29,11.10
2024,03,11,04,30,9.00
2024,03,11,04,31,9.30
2024,03,11,04,32,9.20
2024,03,11,04,33,10.90
2024,03,11,04,34,10.50
2024,03,11,04,35,8.00
2024,03,11,04,36,7.50
2024,03,11,04,37,8.40
2024,03,11,04,38,7.40
2024,03,11,04,39,9.80
2024,03,11,04,40,12.20
2024,03,11,04,41,11.10
2024,03,11,04,42,12.90
2024,03,11,04,43,12.90
2024,03,11,04,44,14.30
2024,03,11,04,45,19.50
2024,03,11,04,46,13.60
2024,03,11,04,47,16.30
2024,03,11,04,48,15.30
2024,03,11,04,49,13.20
2024,03,11,04,50,13.30
2024,03,11,04,51,11.80
2024,03,11,04,52,13.00
2024,03,11,04,53,15.10
2024,03,11,04,54,12.80
2024,03,11,04,55,14.60
2024,03,11,04,56,17.50
2024,03,11,04,57,12.60
2024,03,11,04,58,9.50
2024,03,11,04,59,14.90
2024,03,11,05,00,14.50
2024,03,11,05,01,13.10
2024,03,11,05,02,16.20
2024,03,11,05,03,17.50
2024,03,11,05,04,12.40
2024,03,11,05,05,12.20
2024,03,11,05,06,14.50
2024,03,11,05,07,14.90
2024,03,11,05,08,13.10
2024,03,11,05,09,19.00
2024,03,11,05,10,12.10
2024,03,11,05,11,16.60
2024,03,11,05,12,12.80
2024,03,11,05,13,16.30
2024,03,11,05,14,8.50
2024,03,11,05,15,11.70
2024,03,11,05,16,9.30
2024,03,11,05,17,11.10
2024,03,11,05,18,10.70
2024,03,11,05,19,9.50
2024,03,11,05,20,9.00
2024,03,11,05,21,10.10
2024,03,11,05,22,9.80
2024,03,11,05,23,8.90
2024,03,11,05,24,7.70
2024,03,11,05,25,7.40
2024,03,11,05,26,8.50
2024,03,11,05,27,8.80
2024,03,11,05,28,10.50
2024,03,11,05,29,9.30
2024,03,11,05,30,7.50
2024,03,11,05,31,9.60
2024,03,11,05,32,11.00
2024,03,11,05,33,7.50
2024,03,11,05,34,8.70
2024,03,11,05,35,8.00
2024,03,11,05,36,7.70
2024,03,11,05,37,7.80
2024,03,11,05,38,7.50
2024,03,11,05,39,8.00
2024,03,11,05,40,7.00
2024,03,11,05,41,8.80
2024,03,11,05,42,8.30
2024,03,11,05,43,8.10
2024,03,11,05,44,8.10
2024,03,11,05,45,6.00
2024,03,11,05,46,8.10
2024,03,11,05,47,5.40
2024,03,11,05,48,5.90
2024,03,11,05,49,4.20
2024,03,11,05,50,3.80
2024,03,11,05,51,4.40
2024,03,11,05,52,6.20
2024,03,11,05,53,6.60
2024,03,11,05,54,7.30
2024,03,11,05,55,8.90
2024,03,11,05,56,5.80
2024,03,11,05,57,7.30
2024,03,11,05,58,8.00
2024,03,11,05,59,8.70
2024,03,11,06,00,7.10
2024,03,11,06,01,9.00
2024,03,11,06,02,5.60
2024,03,11,06,03,6.20
2024,03,11,06,04,6.60
2024,03,11,06,05,7.10
2024,03,11,06,06,6.20
2024,03,11,06,07,10.20
2024,03,11,06,08,7.50
2024,03,11,06,09,5.30
2024,03,11,06,10,6.50
2024,03,11,06,11,6.90
2024,03,11,06,12,8.90
2024,03,11,06,13,10.20
2024,03,11,06,14,9.70
2024,03,11,06,15,7.90
2024,03,11,06,16,7.80
2024,03,11,06,17,8.00
2024,03,11,06,18,8.00
2024,03,11,06,19,9.70
2024,03,11,06,20,7.70
2024,03,11,06,21,11.00
2024,03,11,06,22,9.60
2024,03,11,06,23,10.30
2024,03,11,06,24,10.50
2024,03,11,06,25,10.70
2024,03,11,06,26,9.00
2024,03,11,06,27,9.90
2024,03,11,06,28,8.00
2024,03,11,06,29,6.30
2024,03,11,06,30,8.90
2024,03,11,06,31,10.30
2024,03,11,06,32,10.70
2024,03,11,06,33,8.10
2024,03,11,06,34,12.00
2024,03,11,06,35,9.50
2024,03,11,06,36,7.20
2024,03,11,06,37,8.90
2024,03,11,06,38,9.20
2024,03,11,06,39,10.30
2024,03,11,06,40,7.70
2024,03,11,06,41,7.00
2024,03,11,06,42,7.80
2024,03,11,06,43,9.70
2024,03,11,06,44,6.60
2024,03,11,06,45,8.80
2024,03,11,06,46,6.70
2024,03,11,06,47,6.00
2024,03,11,06,48,7.60
2024,03,11,06,49,7.60
2024,03,11,06,50,5.60
2024,03,11,06,51,3.90
2024,03,11,06,52,7.10
2024,03,11,06,53,7.70
2024,03,11,06,54,4.60
2024,03,11,06,55,8.30
2024,03,11,06,56,6.60
2024,03,11,06,57,5.30
2024,03,11,06,58,6.10
2024,03,11,06,59,4.30
2024,03,11,07,00,4.80
2024,03,11,07,01,3.70
2024,03,11,07,02,2.50
2024,03,11,07,03,3.70
2024,03,11,07,04,4.40
2024,03,11,07,05,4.70
2024,03,11,07,06,4.30
2024,03,11,07,07,2.50
2024,03,11,07,08,2.40
2024,03,11,07,09,4.10
2024,03,11,07,10,4.40
2024,03,11,07,11,3.40
2024,03,11,07,12,3.60
2024,03,11,07,13,2.70
2024,03,11,07,14,1.90
2024,03,11,07,15,3.10
2024,03,11,07,16,2.90
2024,03,11,07,17,2.60
2024,03,11,07,18,2.10
2024,03,11,07,19,3.10
2024,03,11,07,20,1.00
2024,03,11,07,21,0.40
2024,03,11,07,22,3.40
2024,03,11,07,23,3.50
2024,03,11,07,24,2.90
2024,03,11,07,25,4.00
2024,03,11,07,26,3.90
2024,03,11,07,27,4.20
2024,03,11,07,28,3.70
2024,03,11,07,29,3.50
2024,03,11,07,30,4.20
2024,03,11,07,31,3.50
2024,03,11,07,32,4.20
2024,03,11,07,33,3.50
2024,03,11,07,34,2.60
2024,03,11,07,35,3.60
2024,03,11,07,36,2.40
2024,03,11,07,37,1.50
2024,03,11,07,38,2.40
2024,03,11,07,39,2.00
2024,03,11,07,40,1.90
2024,03,11,07,41,0.20
2024,03,11,07,42,0.00
2024,03,11,07,43,0.00
2024,03,11,07,44,0.00
2024,03,11,07,45,1.80
2024,03,11,07,46,3.80
2024,03,11,07,47,2.40
2024,03,11,07,48,4.90
2024,03,11,07,49,4.10
2024,03,11,07,50,5.00
2024,03,11,07,51,4.30
2024,03,11,07,52,4.30
2024,03,11,07,53,4.50
2024,03,11,07,54,4.80
2024,03,11,07,55,2.60
2024,03,11,07,56,4.80
2024,03,11,07,57,4.40
2024,03,11,07,58,2.60
2024,03,11,07,59,2.80
2024,03,11,08,00,3.50
2024,03,11,08,01,3.10
2024,03,11,08,02,4.30
2024,03,11,08,03,3.60
2024,03,11,08,04,3.90
2024,03,11,08,05,3.80
2024,03,11,08,06,7.60
2024,03,11,08,07,8.20
2024,03,11,08,08,6.70
2024,03,11,08,09,4.40
2024,03,11,08,10,6.90
2024,03,11,08,11,7.60
2024,03,11,08,12,5.30
2024,03,11,08,13,5.50
2024,03,11,08,14,3.80
2024,03,11,08,15,3.90
2024,03,11,08,16,6.60
2024,03,11,08,17,8.10
2024,03,11,08,18,6.70
2024,03,11,08,19,4.60
2024,03,11,08,20,5.90
2024,03,11,08,21,4.50
2024,03,11,08,22,6.90
2024,03,11,08,23,6.60
2024,03,11,08,24,6.40
2024,03,11,08,25,5.30
2024,03,11,08,26,6.70
2024,03,11,08,27,7.00
2024,03,11,08,28,5.30
2024,03,11,08,29,5.20
2024,03,11,08,30,4.10
2024,03,11,08,31,6.00
2024,03,11,08,32,4.60
2024,03,11,08,33,4.30
2024,03,11,08,34,4.40
2024,03,11,08,35,4.90
2024,03,11,08,36,4.60
2024,03,11,08,37,8.80
2024,03,11,08,38,12.50
2024,03,11,08,39,9.30
2024,03,11,08,40,5.80
2024,03,11,08,41,7.50
2024,03,11,08,42,4.30
2024,03,11,08,43,7.20
2024,03,11,08,44,8.70
2024,03,11,08,45,7.90
2024,03,11,08,46,8.50
2024,03,11,08,47,5.20
2024,03,11,08,48,10.70
2024,03,11,08,49,9.80
2024,03,11,08,50,11.50
2024,03,11,08,51,11.50
2024,03,11,08,52,9.00
2024,03,11,08,53,11.60
2024,03,11,08,54,9.70
2024,03,11,08,55,12.00
2024,03,11,08,56,12.10
2024,03,11,08,57,8.40
2024,03,11,08,58,8.20
2024,03,11,08,59,11.00
2024,03,11,09,00,9.10
2024,03,11,09,01,8.40
2024,03,11,09,02,9.20
2024,03,11,09,03,8.20
2024,03,11,09,04,10.00
2024,03,11,09,05,9.70
2024,03,11,09,06,10.60
2024,03,11,09,07,7.30
2024,03,11,09,08,10.70
2024,03,11,09,09,8.60
2024,03,11,09,10,4.40
2024,03,11,09,11,3.10
2024,03,11,09,12,7.80
2024,03,11,09,13,4.70
2024,03,11,09,14,8.10
2024,03,11,09,15,5.70
2024,03,11,09,16,8.30
2024,03,11,09,17,4.20
2024,03,11,09,18,3.00
2024,03,11,09,19,3.60
2024,03,11,09,20,6.30
2024,03,11,09,21,7.90
2024,03,11,09,22,7.90
2024,03,11,09,23,8.30
2024,03,11,09,24,6.70
2024,03,11,09,25,7.20
2024,03,11,09,26,6.20
2024,03,11,09,27,4.90
2024,03,11,09,28,4.70
2024,03,11,09,29,4.90
2024,03,11,09,30,7.70
2024,03,11,09,31,7.50
2024,03,11,09,32,11.20
2024,03,11,09,33,12.60
2024,03,11,09,34,11.80
2024,03,11,09,35,13.50
2024,03,11,09,36,10.00
2024,03,11,09,37,8.90
2024,03,11,09,38,11.40
2024,03,11,09,39,10.60
2024,03,11,09,40,12.30
2024,03,11,09,41,12.00
2024,03,11,09,42,7.00
2024,03,11,09,43,7.10
2024,03,11,09,44,8.10
2024,03,11,09,45,9.80
2024,03,11,09,46,8.00
2024,03,11,09,47,8.80
2024,03,11,09,48,5.70
2024,03,11,09,49,5.20
2024,03,11,09,50,10.60
2024,03,11,09,51,7.50
2024,03,11,09,52,12.70
2024,03,11,09,53,10.70
2024,03,11,09,54,8.20
2024,03,11,09,55,5.70
2024,03,11,09,56,5.70
2024,03,11,09,57,6.90
2024,03,11,09,58,10.90
2024,03,11,09,59,6.60
2024,03,11,10,00,4.40
2024,03,11,10,01,9.50
2024,03,11,10,02,9.50
2024,03,11,10,03,6.40
2024,03,11,10,04,8.80
2024,03,11,10,05,9.70
2024,03,11,10,06,11.50
2024,03,11,10,07,10.20
2024,03,11,10,08,10.50
2024,03,11,10,09,10.30
2024,03,11,10,10,9.70
2024,03,11,10,11,8.10
2024,03,11,10,12,8.00
2024,03,11,10,13,12.10
2024,03,11,10,14,6.80
2024,03,11,10,15,8.00
2024,03,11,10,16,6.70
2024,03,11,10,17,3.80
2024,03,11,10,18,3.80
2024,03,11,10,19,6.00
2024,03,11,10,20,9.80
2024,03,11,10,21,6.30
2024,03,11,10,22,9.20
2024,03,11,10,23,7.60
2024,03,11,10,24,7.40
2024,03,11,10,25,11.30
2024,03,11,10,26,8.50
2024,03,11,10,27,9.60
2024,03,11,10,28,10.90
2024,03,11,10,29,6.60
2024,03,11,10,30,5.00
2024,03,11,10,31,7.40
2024,03,11,10,32,8.60
2024,03,11,10,33,9.90
2024,03,11,10,34,6.10
2024,03,11,10,35,5.60
2024,03,11,10,36,4.80
2024,03,11,10,37,2.70
2024,03,11,10,38,7.00
2024,03,11,10,39,10.20
2024,03,11,10,40,9.10
2024,03,11,10,41,6.50
2024,03,11,10,42,10.20
2024,03,11,10,43,10.30
2024,03,11,10,44,9.30
2024,03,11,10,45,9.70
2024,03,11,10,46,9.30
2024,03,11,10,47,11.80
2024,03,11,10,48,12.50
2024,03,11,10,49,13.50
2024,03,11,10,50,11.00
2024,03,11,10,51,11.40
2024,03,11,10,52,10.80
2024,03,11,10,53,7.50
2024,03,11,10,54,9.70
2024,03,11,10,55,7.60
2024,03,11,10,56,5.30
2024,03,11,10,57,7.40
2024,03,11,10,58,5.70
2024,03,11,10,59,4.80
2024,03,11,11,00,5.70
2024,03,11,11,01,7.70
2024,03,11,11,02,5.80
2024,03,11,11,03,7.70
2024,03,11,11,04,5.90
2024,03,11,11,05,6.80
2024,03,11,11,06,8.40
2024,03,11,11,07,8.70
2024,03,11,11,08,9.20
2024,03,11,11,09,7.70
2024,03,11,11,10,9.10
2024,03,11,11,11,9.90
2024,03,11,11,12,12.10
2024,03,11,11,13,12.60
2024,03,11,11,14,10.10
2024,03,11,11,15,6.10
2024,03,11,11,16,5.40
2024,03,11,11,17,8.30
2024,03,11,11,18,9.10
2024,03,11,11,19,9.30
2024,03,11,11,20,9.70
2024,03,11,11,21,9.80
2024,03,11,11,22,7.50
2024,03,11,11,23,10.10
2024,03,11,11,24,7.70
2024,03,11,11,25,7.20
2024,03,11,11,26,8.70
2024,03,11,11,27,9.00
2024,03,11,11,28,7.90
2024,03,11,11,29,8.80
2024,03,11,11,30,8.40
2024,03,11,11,31,10.10
2024,03,11,11,32,13.00
2024,03,11,11,33,8.10
2024,03,11,11,34,10.90
2024,03,11,11,35,13.80
2024,03,11,11,36,10.70
2024,03,11,11,37,9.70
2024,03,11,11,38,17.10
2024,03,11,11,39,15.80
2024,03,11,11,40,10.50
2024,03,11,11,41,12.20
2024,03,11,11,42,11.60
2024,03,11,11,43,8.30
2024,03,11,11,44,21.70
2024,03,11,11,45,20.10
2024,03,11,11,46,12.70
2024,03,11,11,47,10.00
2024,03,11,11,48,13.20
2024,03,11,11,49,15.50
2024,03,11,11,50,15.10
2024,03,11,11,51,16.40
2024,03,11,11,52,17.30
2024,03,11,11,53,12.90
2024,03,11,11,54,15.30
2024,03,11,11,55,18.90
2024,03,11,11,56,14.80
2024,03,11,11,57,12.80
2024,03,11,11,58,18.60
2024,03,11,11,59,15.60
2024,03,11,12,00,18.60
2024,03,11,12,01,16.10
2024,03,11,12,02,20.70
2024,03,11,12,03,17.20
2024,03,11,12,04,17.40
2024,03,11,12,05,19.70
2024,03,11,12,06,20.40
2024,03,11,12,07,19.00
2024,03,11,12,08,21.00
2024,03,11,12,09,13.80
2024,03,11,12,10,17.90
2024,03,11,12,11,14.60
2024,03,11,12,12,12.50
2024,03,11,12,13,16.70
2024,03,11,12,14,17.10
2024,03,11,12,15,18.40
2024,03,11,12,16,23.40
2024,03,11,12,17,18.40
2024,03,11,12,18,27.20
2024,03,11,12,19,24.40
2024,03,11,12,20,19.20
2024,03,11,12,21,18.90
2024,03,11,12,22,27.30
2024,03,11,12,23,20.90
2024,03,11,12,24,16.90
2024,03,11,12,25,18.60
2024,03,11,12,26,21.80
2024,03,11,12,27,22.40
2024,03,11,12,28,20.30
2024,03,11,12,29,16.30
2024,03,11,12,30,17.60
2024,03,11,12,31,17.50
2024,03,11,12,32,15.60
2024,03,11,12,33,17.30
2024,03,11,12,34,18.20
2024,03,11,12,35,21.50
2024,03,11,12,36,18.00
2024,03,11,12,37,21.60
2024,03,11,12,38,22.00
2024,03,11,12,39,21.90
2024,03,11,12,40,18.30
2024,03,11,12,41,22.90
2024,03,11,12,42,21.90
2024,03,11,12,43,21.40
2024,03,11,12,44,17.30
2024,03,11,12,45,31.90
2024,03,11,12,46,17.90
2024,03,11,12,47,15.70
2024,03,11,12,48,17.90
2024,03,11,12,49,13.90
2024,03,11,12,50,18.10
2024,03,11,12,51,20.20
2024,03,11,12,52,24.20
2024,03,11,12,53,23.80
2024,03,11,12,54,19.90
2024,03,11,12,55,29.70
2024,03,11,12,56,20.50
2024,03,11,12,57,22.90
2024,03,11,12,58,17.80
2024,03,11,12,59,14.30
2024,03,11,13,00,11.80
2024,03,11,13,01,19.20
2024,03,11,13,02,21.20
2024,03,11,13,03,30.60
2024,03,11,13,04,24.60
2024,03,11,13,05,26.10
2024,03,11,13,06,23.00
2024,03,11,13,07,32.00
2024,03,11,13,08,19.50
2024,03,11,13,09,17.50
2024,03,11,13,10,28.10
2024,03,11,13,11,23.60
2024,03,11,13,12,21.80
2024,03,11,13,13,14.90
2024,03,11,13,14,13.60
2024,03,11,13,15,19.50
2024,03,11,13,16,24.40
2024,03,11,13,17,20.80
2024,03,11,13,18,25.30
2024,03,11,13,19,27.50
2024,03,11,13,20,30.00
2024,03,11,13,21,26.40
2024,03,11,13,22,26.00
2024,03,11,13,23,26.30
2024,03,11,13,24,24.80
2024,03,11,13,25,20.50
2024,03,11,13,26,20.80
2024,03,11,13,27,25.70
2024,03,11,13,28,28.20
2024,03,11,13,29,25.60
2024,03,11,13,30,24.90
2024,03,11,13,31,17.40
2024,03,11,13,32,23.00
2024,03,11,13,33,22.90
2024,03,11,13,34,31.50
2024,03,11,13,35,25.30
2024,03,11,13,36,21.80
2024,03,11,13,37,21.60
2024,03,11,13,38,19.20
2024,03,11,13,39,22.20
2024,03,11,13,40,36.90
2024,03,11,13,41,28.00
2024,03,11,13,42,22.00
2024,03,11,13,43,25.80
2024,03,11,13,44,24.90
2024,03,11,13,45,26.80
2024,03,11,13,46,27.30
2024,03,11,13,47,19.20
2024,03,11,13,48,27.20
2024,03,11,13,49,25.40
2024,03,11,13,50,33.60
2024,03,11,13,51,33.10
2024,03,11,13,52,25.30
2024,03,11,13,53,16.00
2024,03,11,13,54,18.30
2024,03,11,13,55,19.10
2024,03,11,13,56,25.40
2024,03,11,13,57,22.00
2024,03,11,13,58,27.00
2024,03,11,13,59,28.10
2024,03,11,14,00,27.80
2024,03,11,14,01,21.10
2024,03,11,14,02,34.60
2024,03,11,14,03,25.20
2024,03,11,14,04,18.80
2024,03,11,14,05,32.60
2024,03,11,14,06,31.20
2024,03,11,14,07,19.20
2024,03,11,14,08,13.00
2024,03,11,14,09,22.20
2024,03,11,14,10,22.50
2024,03,11,14,11,20.80
2024,03,11,14,12,30.40
2024,03,11,14,13,26.30
2024,03,11,14,14,21.00
2024,03,11,14,15,18.50
2024,03,11,14,16,23.80
2024,03,11,14,17,19.80
2024,03,11,14,18,18.90
2024,03,11,14,19,21.40
2024,03,11,14,20,20.80
2024,03,11,14,21,24.80
2024,03,11,14,22,20.80
2024,03,11,14,23,26.10
2024,03,11,14,24,15.20
2024,03,11,14,25,22.80
2024,03,11,14,26,18.40
2024,03,11,14,27,25.90
2024,03,11,14,28,20.60
2024,03,11,14,29,20.30
2024,03,11,14,30,17.90
2024,03,11,14,31,23.60
2024,03,11,14,32,28.40
2024,03,11,14,33,29.00
2024,03,11,14,34,23.90
2024,03,11,14,35,29.50
2024,03,11,14,36,27.70
2024,03,11,14,37,23.40
2024,03,11,14,38,31.70
2024,03,11,14,39,25.10
2024,03,11,14,40,28.30
2024,03,11,14,41,26.20
2024,03,11,14,42,25.20
2024,03,11,14,43,24.10
2024,03,11,14,44,23.50
2024,03,11,14,45,27.60
2024,03,11,14,46,24.40
2024,03,11,14,47,23.40
2024,03,11,14,48,27.90
2024,03,11,14,49,24.40
2024,03,11,14,50,14.20
2024,03,11,14,51,25.20
2024,03,11,14,52,30.00
2024,03,11,14,53,30.00
2024,03,11,14,54,17.60
2024,03,11,14,55,28.70
2024,03,11,14,56,19.70
2024,03,11,14,57,25.80
2024,03,11,14,58,29.80
2024,03,11,14,59,29.60
2024,03,11,15,00,19.50
2024,03,11,15,01,18.60
2024,03,11,15,02,25.00
2024,03,11,15,03,39.70
2024,03,11,15,04,30.30
2024,03,11,15,05,26.40
2024,03,11,15,06,25.00
2024,03,11,15,07,26.10
2024,03,11,15,08,30.00
2024,03,11,15,09,28.80
2024,03,11,15,10,29.40
2024,03,11,15,11,19.40
2024,03,11,15,12,24.30
2024,03,11,15,13,21.80
2024,03,11,15,14,26.40
2024,03,11,15,15,28.10
2024,03,11,15,16,16.10
2024,03,11,15,17,33.30
2024,03,11,15,18,29.60
2024,03,11,15,19,28.20
2024,03,11,15,20,30.00
2024,03,11,15,21,24.30
2024,03,11,15,22,21.30
2024,03,11,15,23,22.50
2024,03,11,15,24,20.00
2024,03,11,15,25,12.20
2024,03,11,15,26,16.10
2024,03,11,15,27,20.60
2024,03,11,15,28,19.50
2024,03,11,15,29,27.40
2024,03,11,15,30,20.40
2024,03,11,15,31,21.80
2024,03,11,15,32,19.70
2024,03,11,15,33,15.40
2024,03,11,15,34,18.80
2024,03,11,15,35,24.20
2024,03,11,15,36,18.90
2024,03,11,15,37,12.30
2024,03,11,15,38,16.60
2024,03,11,15,39,21.90
2024,03,11,15,40,23.40
2024,03,11,15,41,19.50
2024,03,11,15,42,28.50
2024,03,11,15,43,22.50
2024,03,11,15,44,17.90
2024,03,11,15,45,29.00
2024,03,11,15,46,26.60
2024,03,11,15,47,21.60
2024,03,11,15,48,16.80
2024,03,11,15,49,25.70
2024,03,11,15,50,25.10
2024,03,11,15,51,19.30
2024,03,11,15,52,25.90
2024,03,11,15,53,27.10
2024,03,11,15,54,16.30
2024,03,11,15,55,14.20
2024,03,11,15,56,23.60
2024,03,11,15,57,15.00
2024,03,11,15,58,17.50
2024,03,11,15,59,26.40
2024,03,11,16,00,20.30
2024,03,11,16,01,21.80
2024,03,11,16,02,21.40
2024,03,11,16,03,17.00
2024,03,11,16,04,20.30
2024,03,11,16,05,19.90
2024,03,11,16,06,24.20
2024,03,11,16,07,24.80
2024,03,11,16,08,27.10
2024,03,11,16,09,18.70
2024,03,11,16,10,17.30
2024,03,11,16,11,23.50
2024,03,11,16,12,16.90
2024,03,11,16,13,32.30
2024,03,11,16,14,31.20
2024,03,11,16,15,31.60
2024,03,11,16,16,22.10
2024,03,11,16,17,24.40
2024,03,11,16,18,26.60
2024,03,11,16,19,20.20
2024,03,11,16,20,21.50
2024,03,11,16,21,17.90
2024,03,11,16,22,31.60
2024,03,11,16,23,31.20
2024,03,11,16,24,20.50
2024,03,11,16,25,25.20
2024,03,11,16,26,25.00
2024,03,11,16,27,18.70
2024,03,11,16,28,13.30
2024,03,11,16,29,29.60
2024,03,11,16,30,29.20
2024,03,11,16,31,23.90
2024,03,11,16,32,21.40
2024,03,11,16,33,24.20
2024,03,11,16,34,24.00
2024,03,11,16,35,22.80
2024,03,11,16,36,19.80
2024,03,11,16,37,20.00
2024,03,11,16,38,20.70
2024,03,11,16,39,21.60
2024,03,11,16,40,14.70
2024,03,11,16,41,22.60
2024,03,11,16,42,28.20
2024,03,11,16,43,20.20
2024,03,11,16,44,30.10
2024,03,11,16,45,20.30
2024,03,11,16,46,21.90
2024,03,11,16,47,32.70
2024,03,11,16,48,33.30
2024,03,11,16,49,25.30
2024,03,11,16,50,18.30
2024,03,11,16,51,12.30
2024,03,11,16,52,24.40
2024,03,11,16,53,26.90
2024,03,11,16,54,27.00
2024,03,11,16,55,23.30
2024,03,11,16,56,22.30
2024,03,11,16,57,24.90
2024,03,11,16,58,22.70
2024,03,11,16,59,20.80
2024,03,11,17,00,16.50
2024,03,11,17,01,14.30
2024,03,11,17,02,30.30
2024,03,11,17,03,34.50
2024,03,11,17,04,27.40
2024,03,11,17,05,31.80
2024,03,11,17,06,21.50
2024,03,11,17,07,21.70
2024,03,11,17,08,20.70
2024,03,11,17,09,27.60
2024,03,11,17,10,25.70
2024,03,11,17,11,25.60
2024,03,11,17,12,19.20
2024,03,11,17,13,21.50
2024,03,11,17,14,26.90
2024,03,11,17,15,23.90
2024,03,11,17,16,18.90
2024,03,11,17,17,32.60
2024,03,11,17,18,26.50
2024,03,11,17,19,27.80
2024,03,11,17,20,26.70
2024,03,11,17,21,30.40
2024,03,11,17,22,32.10
2024,03,11,17,23,33.20
2024,03,11,17,24,25.80
2024,03,11,17,25,28.60
2024,03,11,17,26,27.80
2024,03,11,17,27,28.00
2024,03,11,17,28,20.20
2024,03,11,17,29,18.30
2024,03,11,17,30,28.60
2024,03,11,17,31,21.60
2024,03,11,17,32,32.60
2024,03,11,17,33,22.30
2024,03,11,17,34,30.20
2024,03,11,17,35,26.30
2024,03,11,17,36,20.60
2024,03,11,17,37,28.80
2024,03,11,17,38,32.80
2024,03,11,17,39,23.30
2024,03,11,17,40,29.00
2024,03,11,17,41,30.00